Regional Weather Roundup
Issued by NWS

Home | Current Version | Previous Version | Text Only | Print | Product List | Glossary Off
Versions: 1 2 3 4 5 6 7 8 9 10 11 12 13 14 15 16 17 18 19 20 21 22 23 24 25 26 27 28 29 30 31 32 33 34 35 36 37 38 39 40 41 42 43 44 45 46 47 48 49 50

952
ASUS43 KOAX 240702
RWRNE

WEATHER ROUNDUP FOR NEBRASKA
NATIONAL WEATHER SERVICE OMAHA NE
200 AM CDT SAT JUN 24 2017

NOTES: SATELLITE DATA IS BEING USED TO AUGMENT CLOUD COVER ABOVE
       12000 FEET.
       "FAIR" INDICATES FEW OR NO CLOUDS BELOW 12,000 FEET WITH NO
       SIGNIFICANT WEATHER AND/OR OBSTRUCTIONS TO VISIBILITY.

  * THESE STATIONS DO NOT REPORT WEATHER SUCH AS RAIN...SNOW OR FOG.

NEZ001>004-019>022-054>056-240800-
NEBRASKA PANHANDLE

CITY           SKY/WX    TMP DP  RH WIND       PRES   REMARKS
SCOTTSBLUFF    CLOUDY    55  36  48 CALM      30.30R
ALLIANCE       MOCLDY    47  38  71 NW3       30.29S
CHADRON        CLEAR     44  38  79 SW9       30.28R
GORDON         FAIR      42  37  80 SW3       30.27S
KIMBALL        CLOUDY    53  45  74 CALM      30.33S
SIDNEY         CLOUDY    52  39  61 NE6       30.31R
$$

NEZ057>060-069>072-079>082-240800-
SOUTHWEST NEBRASKA

CITY           SKY/WX    TMP DP  RH WIND       PRES   REMARKS
NORTH PLATTE   CLEAR     46  41  82 CALM      30.25R
IMPERIAL       CLEAR     49  41  74 SE3       30.26S
LEXINGTON      CLEAR     47  43  85 NW6       30.23R
MCCOOK         CLEAR     52  44  74 NW3       30.24R
OGALLALA       CLOUDY    55  39  55 CALM      30.27S
$$

NEZ005>010-023>029-035>040-094-240800-
NORTH CENTRAL NEBRASKA

CITY           SKY/WX    TMP DP  RH WIND       PRES   REMARKS
VALENTINE      PTCLDY    45  31  58 W6        30.21F
AINSWORTH      PTCLDY    42  37  82 SW5       30.22S
BROKEN BOW     CLEAR     48  39  71 NW3       30.22R
O`NEILL        CLEAR     47  39  73 CALM      30.18S
ORD            PTCLDY    46  38  73 CALM      30.19S
THEDFORD       CLEAR     46  36  67 W3        30.26R
$$

NEZ041-046>049-061>064-073>077-083>087-240800-
SOUTH CENTRAL NEBRASKA

CITY           SKY/WX    TMP DP  RH WIND       PRES   REMARKS
GRAND ISLAND   CLEAR     52  45  77 NW5       30.20R
AURORA         CLEAR     50  45  83 NW6       30.19R
HASTINGS       CLEAR     56  44  64 W3        30.20R
HEBRON         CLEAR     55  50  85 CALM      30.17R
HOLDREGE       CLEAR     52  45  76 NW6       30.21S
KEARNEY *      CLEAR     54  43  66 NW7       30.21S
$$

NEZ011>018-030>034-042>045-240800-
NORTHEAST NEBRASKA

CITY           SKY/WX    TMP DP  RH WIND       PRES   REMARKS
NORFOLK        CLEAR     50  38  63 SW3       30.15S
ALBION         CLEAR     45  39  79 NW5       30.18S
BLAIR          PTCLDY    56  43  62 NW5       30.13S
FREMONT        CLEAR     53  45  73 W3        30.15S
TEKAMAH        PTCLDY    56  41  57 NW9       30.13R
WAYNE          CLEAR     47  42  82 S3        30.15R
$$

NEZ050>053-065>068-078-088>093-240800-
SOUTHEAST NEBRASKA

CITY           SKY/WX    TMP DP  RH WIND       PRES   REMARKS
LINCOLN        CLEAR     53  48  83 N5        30.16R
OMAHA EPPLEY   PTCLDY    58  47  66 N3        30.13R
BEATRICE       CLEAR     55  52  91 CALM      30.15S
FALLS CITY     CLEAR     56  53  90 NW7       30.11R
NEBRASKA CITY  CLEAR     60  51  72 NW8       30.13R
PLATTSMOUTH    CLEAR     57  49  72 NW6       30.13S
$$

NEZ044-045-051>053-067-240800-
OMAHA AREA

CITY           SKY/WX    TMP DP  RH WIND       PRES   REMARKS
OMAHA EPPLEY   PTCLDY    58  47  66 N3        30.13R
BLAIR          PTCLDY    56  43  62 NW5       30.13S
FREMONT        CLEAR     53  45  73 W3        30.15S
MILLARD        CLEAR     61  48  62 NW6       30.14R
OFFUTT AFB     CLEAR     55  45  71 W8        30.12R
PLATTSMOUTH    CLEAR     57  49  72 NW6       30.13S
WAHOO          FAIR      56  41  57 NW7       30.15R
$$




USA.gov is the U.S. government's official web portal to all federal, state and local government web resources and services.